Powrót do katalogu

STARLINK-31389

AktywnyŁącznośćVLEO
NORAD 59013·PAYLOAD·🇺🇸 United States

Wystrzelony Feb 23, 2024 z Vandenberg Space Force Base

Loading…

Następne Przeloty (najbliższe 24 godziny)

TLE

ŚwieżeSource: CelesTrak SupGP

Epoka: Sep 15, 2026, 02:31 UTC

1 59013C 24036R   26258.10534722  .00003763  00000+0  12101-3 0  2584
2 59013  53.1570 277.9267 0001162  92.5461 102.2704 15.31700821    13

Śledź STARLINK-31389 w czasie rzeczywistym z AllMySat

Download on the App Store